OK2ILA-1 Weather Reports


time (UTC)temp
C
wind
direction
speed
KPH
gust
KPH
rain 1hr
cm
rain 24hr
cm
rain mn
cm
humidity
%
barometer
mb
20260504130332 25 219 19.3 27.4 0.00 0.00 0.00 100 1014.9
20260504110325 23 182 25.7 33.8 0.00 0.00 0.00 100 1015.7
20260504100322 23 153 19.3 30.6 0.00 0.00 0.00 100 1016.3
20260504081516 21 127 17.7 30.6 0.00 0.00 0.00 100 1016.8
20260504080315 21 208 19.3 29.0 0.00 0.00 0.00 100 1016.8
20260504070312 20 175 16.1 33.8 0.00 0.00 0.00 100 1016.7
20260504050305 14 201 4.8 9.7 0.00 0.00 0.00 100 1016.5
20260504045104 13 198 1.6 8.0 0.00 0.00 0.00 100 1016.7
20260504043904 13 157 0.0 12.9 0.00 0.00 0.00 100 1016.7
20260504042703 13 175 1.6 6.4 0.00 0.00 0.00 100 1016.7
20260504041502 12 194 0.0 0.0 0.00 0.00 0.00 100 1016.5
20260504040301 12 168 0.0 3.2 0.00 0.00 0.00 100 1016.7
20260504035101 12 198 1.6 4.8 0.00 0.00 0.00 100 1016.5
20260504033900 12 217 0.0 6.4 0.00 0.00 0.00 100 1016.4
20260504032659 13 300 4.8 4.8 0.00 0.00 0.00 100 1016.3
20260504031459 13 191 1.6 11.3 0.00 0.00 0.00 100 1016.3
20260504030258 13 196 9.7 16.1 0.00 0.00 0.00 100 1016.3
20260504025057 13 182 4.8 17.7 0.00 0.00 0.00 100 1016.2
20260504023857 13 154 12.9 19.3 0.00 0.00 0.00 100 1016.1
20260504022656 13 188 16.1 17.7 0.00 0.00 0.00 100 1016.0
20260504021455 13 185 6.4 14.5 0.00 0.00 0.00 100 1016.1
20260504020255 13 220 6.4 11.3 0.00 0.00 0.00 100 1016.1
20260504015054 13 226 4.8 11.3 0.00 0.00 0.00 100 1016.0
20260504013853 13 227 8.0 12.9 0.00 0.00 0.00 100 1016.0
20260504012653 13 192 6.4 12.9 0.00 0.00 0.00 100 1016.1
20260504011452 13 234 8.0 16.1 0.00 0.00 0.00 100 1016.1
20260504010251 14 285 0.0 11.3 0.00 0.00 0.00 100 1016.1
20260504005051 13 223 8.0 16.1 0.00 0.00 0.00 100 1016.2
20260504003850 14 253 6.4 14.5 0.00 0.00 0.00 100 1016.2
20260504002649 14 239 11.3 14.5 0.00 0.00 0.00 100 1016.2
20260504001449 14 275 3.2 6.4 0.00 0.00 0.00 100 1016.3
20260504000248 14 253 6.4 6.4 0.00 0.00 0.00 100 1016.3
20260503235047 14 198 1.6 11.3 0.00 0.00 0.00 100 1016.2
20260503233847 14 187 9.7 11.3 0.00 0.00 0.00 100 1016.3
20260503232646 15 201 4.8 14.5 0.00 0.00 0.00 100 1016.4
20260503231445 15 180 8.0 16.1 0.00 0.00 0.00 100 1016.5
20260503230244 14 187 9.7 16.1 0.00 0.00 0.00 100 1016.5
20260503225044 14 196 6.4 17.7 0.00 0.00 0.00 100 1016.7
20260503223843 15 191 9.7 20.9 0.00 0.00 0.00 100 1016.8
20260503222642 15 171 8.0 12.9 0.00 0.00 0.00 100 1016.8
20260503221442 15 192 11.3 16.1 0.00 0.00 0.00 100 1016.8
20260503220241 15 180 6.4 16.1 0.00 0.00 0.00 100 1016.9
20260503215040 15 212 8.0 14.5 0.00 0.00 0.00 100 1017.0
20260503213840 15 222 8.0 20.9 0.00 0.00 0.00 100 1017.1
20260503212639 15 178 9.7 14.5 0.00 0.00 0.00 100 1017.1
20260503211438 15 203 6.4 14.5 0.00 0.00 0.00 100 1017.2
20260503210238 14 187 8.0 14.5 0.00 0.00 0.00 100 1017.2
20260503205037 14 136 4.8 14.5 0.00 0.00 0.00 100 1017.2
20260503203836 15 175 4.8 4.8 0.00 0.00 0.00 100 1017.3
20260503202636 15 196 4.8 4.8 0.00 0.00 0.00 100 1017.3
20260503201435 15 192 1.6 6.4 0.00 0.00 0.00 100 1017.4
20260503200234 15 181 4.8 9.7 0.00 0.00 0.00 100 1017.4
20260503195034 15 195 3.2 4.8 0.00 0.00 0.00 100 1017.4
20260503193833 16 170 1.6 6.4 0.00 0.00 0.00 100 1017.5
20260503192632 16 168 3.2 6.4 0.00 0.00 0.00 100 1017.5
20260503191432 16 158 1.6 3.2 0.00 0.00 0.00 100 1017.4
20260503190231 16 157 0.0 3.2 0.00 0.00 0.00 100 1017.4
20260503185030 17 161 1.6 6.4 0.00 0.00 0.00 100 1017.3
20260503183830 17 171 1.6 3.2 0.00 0.00 0.00 100 1017.2
20260503182629 18 177 3.2 3.2 0.00 0.00 0.00 100 1017.1
20260503181428 18 171 0.0 3.2 0.00 0.00 0.00 100 1017.1
20260503180228 19 192 1.6 11.3 0.00 0.00 0.00 100 1017.0
20260503175027 20 209 4.8 14.5 0.00 0.00 0.00 100 1016.9
20260503173826 20 206 14.5 17.7 0.00 0.00 0.00 100 1016.9
20260503172625 20 202 8.0 19.3 0.00 0.00 0.00 100 1016.8
20260503171425 21 226 6.4 19.3 0.00 0.00 0.00 100 1016.8
20260503170224 21 216 11.3 14.5 0.00 0.00 0.00 100 1016.8
20260503150705 23 175 20.9 24.1 0.00 0.00 0.00 100 1017.0